www.pogodaiklimat.ru

Погода и климат >> Архив погоды >> Австралия >> Западная Австралия >> Калгурли-Боулдер


ПОГОДА в Калгурли-Боулдере

  • Прогноз погоды в Калгурли-Боулдере
  • Монитор погоды в Калгурли-Боулдере

АРХИВ ПОГОДЫ в Калгурли-Боулдере

Время (UTC), дата Ветер
(напр.,м/с)
 
Видим.   Явления Облачность Т
(С)
Тd
(С)
f
(%)
Тe
(С)
Тes
(С)
Комфортность P
(гПа)
Po
(гПа)
Тmin
(С)
Tmax
(С)
R
(мм)
R24
(мм)
S
(см)
22 14.07 В 3 н/о 8/8 300 м
[]
+4.3 +3.3 93 0 0 1034.5 990.3
00 15.07 В 3 н/о н/о +7.6 +4.7 82 +5 +5 1035.1 990.9
01 15.07 В 4 н/о н/о +10.6 +5.8 72 +8 +8 1035.2 991.0 +3.3
03 15.07 СВ 5 н/о н/о +13.7 +6.1 60 +12 +12 1034.4 990.2
04 15.07 В 4 н/о н/о +14.7 +6.0 56 +14 +14 1032.8 988.7
06 15.07 В 4 н/о н/о +16.9 +5.2 46 +17 +17 1030.7 986.7
07 15.07 В 3 н/о н/о +17.1 +4.8 44 +17 +17 1030.5 986.5
09 15.07 В 5 н/о н/о +14.9 +4.3 49 +14 +14 1030.7 986.7
10 15.07 В 3 н/о н/о +13.4 +4.0 53 +13 +13 1030.8 986.8
12 15.07 В 4 н/о н/о +10.2 +3.9 65 +8 +8 1031.4 987.3
13 15.07 В 5 н/о н/о +12.6 +4.8 59 +11 +11 1031.6 987.5 +17.6
15 15.07 В 5 н/о н/о +11.0 +5.3 68 +8 +8 1032.1 988.0
16 15.07 СВ 5 н/о н/о +10.1 +5.3 72 +7 +7 1031.7 987.6
18 15.07 СВ 4 н/о н/о +8.4 +5.0 79 +6 +6 1031.4 987.3
19 15.07 СВ 4 н/о н/о +7.7 +4.8 82 +5 +5 1031.4 987.3
21 15.07 СВ 4 н/о н/о +6.8 +4.6 86 +3 +3 1031.0 987.0
22 15.07 С 3 н/о н/о +5.8 +3.8 87 +3 +3 1031.5 987.4
00 16.07 С 3 н/о н/о +7.5 +4.8 83 +5 +5 1032.2 988.1
01 16.07 С 4 н/о н/о +10.4 +5.4 71 +8 +8 1032.4 988.3 +5.2
03 16.07 С 5 н/о н/о +13.9 +5.0 55 +12 +12 1031.6 987.5
04 16.07 СЗ 3 н/о н/о +15.6 +4.6 48 +15 +15 1030.2 986.2
06 16.07 СВ 3 н/о н/о +18.1 +3.6 38 +18 +18 1028.3 984.4
07 16.07 В 2 н/о н/о +18.3 +2.6 35 +19 +19 1028.2 984.3
09 16.07 Ю 2 н/о н/о +16.2 +2.2 39 +17 +17 1028.0 984.1
10 16.07 штиль 0 н/о н/о +13.3 +1.9 46 +13 +13 1028.3 984.4
12 16.07 ЮВ 2 н/о н/о +8.4 +1.3 61 +7 +7 1028.8 984.9
13 16.07 ЮВ 2 н/о н/о +7.8 +1.6 65 +7 +7 1029.0 985.0 +19.0
15 16.07 штиль 0 н/о н/о +6.2 +1.9 74 +5 +5 1028.5 984.6
16 16.07 СЗ 1 н/о н/о +6.3 +1.8 73 +7 +7 1027.9 984.0
18 16.07 С 3 н/о н/о +8.4 +1.1 60 +6 +6 1027.2 983.3
19 16.07 С 2 н/о н/о +7.6 +0.6 61 +6 +6 1026.9 983.0
21 16.07 С 3 н/о н/о +6.2 -0.3 63 +3 +3 1026.1 982.3
22 16.07 С 3 н/о н/о +6.2 -0.1 64 +4 +4 1026.1 982.3
00 17.07 С 2 н/о н/о +8.1 +1.0 61 +7 +7 1026.9 983.0
01 17.07 С 5 н/о н/о +11.5 +1.5 50 +9 +9 1027.1 983.2 +5.5
03 17.07 С 4 н/о н/о +16.8 +1.3 35 +17 +17 1026.1 982.3
04 17.07 С 4 н/о н/о +18.0 +0.6 31 +18 +18 1024.8 981.0
06 17.07 С 5 н/о н/о +20.2 -2.2 22 +20 +20 1022.7 979.0
07 17.07 С 5 н/о н/о +20.5 -4.6 18 +20 +20 1022.3 978.6
09 17.07 С 3 н/о н/о +17.2 -3.5 24 +17 +17 1021.7 978.1
10 17.07 С 2 н/о н/о +13.5 -3.3 31 +13 +13 1021.6 978.0
12 17.07 С 2 н/о н/о +10.8 -3.7 36 +10 +10 1022.1 978.4
13 17.07 СЗ 2 н/о н/о +11.2 -4.1 34 +11 +11 1022.3 978.6 +21.0
15 17.07 СЗ 3 н/о н/о +9.5 -3.1 41 +8 +8 1022.1 978.4
16 17.07 СЗ 3 н/о н/о +7.6 -2.7 48 +6 +6 1021.5 977.9
18 17.07 С 1 н/о н/о +5.1 -3.2 55 +4 +4 1021.0 977.4
19 17.07 штиль 0 н/о н/о +4.5 -2.8 59 +4 +4 1020.8 977.2
21 17.07 С 2 н/о н/о +2.5 -2.2 71 -0 -0 1020.8 977.2
22 17.07 СЗ 2 н/о н/о +2.4 -2.7 69 0 0 1021.3 977.7
00 18.07 штиль 0 н/о н/о +7.8 -0.4 56 +7 +7 1022.3 978.6
01 18.07 З 1 н/о н/о +11.2 -1.2 42 +12 +12 1022.7 979.0 +2.3
03 18.07 В 2 н/о н/о +17.4 +2.6 37 +18 +18 1022.0 978.3
04 18.07 В 2 н/о н/о +19.0 +2.0 32 +20 +20 1020.8 977.2
06 18.07 СЗ 3 н/о н/о +20.8 +0.6 26 +21 +21 комфорт 1018.8 975.3
07 18.07 З 3 н/о н/о +20.3 +0.2 26 +21 +21 комфорт 1018.5 975.0
09 18.07 С 2 н/о н/о +17.5 +0.6 32 +18 +18 1018.2 974.7
10 18.07 СВ 2 н/о н/о +14.5 +1.1 40 +15 +15 1018.2 974.7
12 18.07 штиль 0 н/о н/о +11.6 +1.3 49 +11 +11 1018.5 975.0
13 18.07 С 2 н/о н/о +10.9 +1.2 51 +10 +10 1018.6 975.1 +21.3
15 18.07 С 2 н/о н/о +11.1 +0.8 49 +10 +10 1018.2 974.7
16 18.07 С 2 н/о н/о +9.9 +0.5 52 +9 +9 1017.7 974.2
18 18.07 С 3 н/о н/о +8.7 -0.3 53 +7 +7 1016.3 972.9
19 18.07 С 3 н/о н/о +8.5 -2.1 47 +7 +7 1015.9 972.5
21 18.07 С 2 н/о н/о +5.9 -3.4 51 +4 +4 1015.2 971.8
22 18.07 СЗ 2 н/о н/о +6.0 -3.9 49 +4 +4 1015.1 971.7
00 19.07 СЗ 3 н/о н/о +9.9 -3.4 39 +8 +8 1015.1 971.7
01 19.07 С 5 н/о н/о +13.9 -4.3 28 +13 +13 1015.1 971.7 +3.8
03 19.07 СЗ 6 н/о н/о +20.2 -5.6 17 +20 +20 1013.5 970.2
04 19.07 СЗ 7 н/о н/о +22.7 -5.2 15 +21 +21 комфорт 1012.0 968.8
06 19.07 СЗ 9 н/о н/о +24.1 -8.2 11 +22 +22 комфорт 1009.7 966.6
07 19.07 СЗ 8 н/о н/о +24.0 -8.2 11 +22 +22 комфорт 1009.3 966.2
09 19.07 СЗ 6 н/о н/о +21.6 -9.0 12 +20 +20 1008.3 965.2
10 19.07 СЗ 4 н/о н/о +19.1 -8.1 15 +19 +19 1008.4 965.3
12 19.07 СЗ 4 н/о н/о +16.5 -7.9 18 +16 +16 1008.3 965.2
13 19.07 СЗ 4 н/о н/о +15.9 -7.0 20 +15 +15 1008.0 964.9 +24.7
15 19.07 СЗ 5 н/о н/о +14.6 -4.7 26 +14 +14 1008.0 964.9
16 19.07 СЗ 5 н/о н/о +14.5 -0.8 35 +13 +13 1007.6 964.6
18 19.07 З 6 н/о н/о +13.6 +8.4 71 +11 +11 1008.0 964.9
19 19.07 З 6 н/о ливневой дождь 10/10 600 м
[]
+12.0 +9.9 87 +9 +9 1008.4 965.3
21 19.07 ЮЗ 7 н/о н/о +9.2 +7.2 87 +5 +5 1010.5 967.3
22 19.07 З 4 н/о {туман} н/о +8.3 +5.9 85 +5 +5 1011.6 968.4
00 20.07 З 5 н/о н/о +9.0 +6.3 83 +6 +6 1013.8 970.5
01 20.07 З 7 н/о {туман} н/о +10.8 +5.6 70 +7 +7 1015.3 971.9 +7.7
03 20.07 ЮЗ 8 н/о н/о +12.8 +4.3 56 +10 +10 1016.8 973.4
04 20.07 З 7 н/о 10/10 1000 м
[]
+14.2 +2.8 46 +12 +12 1016.5 973.1
06 20.07 ЮЗ 8 н/о н/о +14.3 -0.2 37 +12 +12 1016.5 973.1
07 20.07 З 8 н/о 1/1 1500 м
[]
+14.9 +0.4 37 +13 +14 1016.7 973.3
09 20.07 З 7 н/о н/о +13.4 +1.4 44 +11 +11 1018.2 974.7
10 20.07 З 5 н/о н/о +12.3 +1.6 48 +10 +10 1019.1 975.6
12 20.07 З 3 н/о н/о +10.1 +2.5 59 +8 +8 1020.2 976.6
13 20.07 З 3 н/о н/о +9.4 +3.2 65 +7 +7 1020.4 976.8 +17.4
15 20.07 СЗ 3 н/о н/о +7.9 +3.4 73 +5 +5 1019.7 976.1
16 20.07 СЗ 3 н/о н/о +6.1 +3.3 82 +3 +3 1019.7 976.1
18 20.07 С 3 н/о н/о +5.4 +3.3 86 +2 +2 1019.4 975.9
19 20.07 С 4 н/о н/о +5.4 +3.4 87 +2 +2 1019.3 975.8
21 20.07 СЗ 4 н/о н/о +5.1 +4.1 93 +1 +1 1019.1 975.6
22 20.07 СЗ 4 н/о н/о +5.0 +4.1 94 +1 +1 1019.4 975.9
00 21.07 СЗ 4 н/о н/о +8.2 +6.2 87 +5 +5 1019.8 976.2
01 21.07 СЗ 5 н/о н/о +11.1 +7.0 76 +8 +8 1020.0 976.4 +4.8
03 21.07 З 7 н/о н/о +15.1 +7.9 62 +13 +13 1019.2 975.7
04 21.07 З 7 н/о 10/10 600 м
[]
+16.3 +8.3 59 +15 +15 1018.1 974.6
06 21.07 З 6 н/о н/о +16.7 +7.9 56 +16 +16 1016.3 972.9
07 21.07 З 7 н/о 10/10 1000 м
[]
+16.6 +8.1 57 +15 +15 1016.3 972.9
09 21.07 З 5 н/о н/о +15.5 +8.3 62 +14 +14 1016.6 973.2
10 21.07 З 4 н/о 9/9 1500 м
[]
+15.1 +8.1 63 +14 +14 1016.6 973.2
12 21.07 СЗ 5 н/о н/о +14.6 +7.2 61 +13 +13 1016.6 973.2
13 21.07 З 4 н/о н/о +13.6 +6.2 61 +12 +12 1016.6 973.2 +18.3
15 21.07 З 5 н/о н/о +12.7 +6.7 67 +11 +11 1016.5 973.1
16 21.07 СЗ 4 н/о н/о +11.8 +6.5 70 +10 +10 1016.3 972.9
18 21.07 З 4 н/о н/о +10.5 +6.8 78 +8 +8 1016.6 973.2
19 21.07 З 4 н/о н/о +10.6 +7.5 81 +8 +8 1016.1 972.7
21 21.07 З 4 н/о н/о +10.6 +8.2 85 +8 +8 1016.3 972.9

 

Местоположение метеостанции Калгурли-Боулдер (Западная Австралия, Австралия): широта -30.78 долгота 121.45 высота над уровнем моря 370 м.

В архиве по умолчанию представлена погода в Калгурли-Боулдере за последнюю неделю. Архивные данные за месяц целиком и за предыдущие месяцы, начиная с января 2011 года, Вы можете получить, выбрав интересующий диапазон дат из раскрывающегося списка и нажав кнопку "Ввод!".


*Определитесь, кто Вы:
робот инопланетянин человек

Внимание! Время в таблицах - всемирное. Для получения местного времени необходимо прибавить поправку, которая равна 8 ч.

Смотрите также архив погоды в соседних городах и на ближайших метеорологических станциях:

Погода в Норсмане (Западная Австралия, Австралия) (163 км)
Погода в Саутерн Кросс (Западная Австралия, Австралия) (206 км)
Погода в Леонора аэропорту (Западная Австралия, Австралия) (212 км)
Погода в Салмон Гамс (Западная Австралия, Австралия) (245 км)
Погода в Лавертоне (Западная Австралия, Австралия) (259 км)
Погода в Мунглинап Запад (Западная Австралия, Австралия) (316 км)
Погода в Эсперансе (Западная Австралия, Австралия) (325 км)
Погода в Леинстере (Западная Австралия, Австралия) (334 км)
Погода в Эсперансе (Западная Австралия, Австралия) (342 км)
Погода в Ньюдегейте (Западная Австралия, Австралия) (359 км)

Пояснения к столбцам:

Ветер - указаны скорость ветра в м/с - средняя за 10 мин, порывы в срок и между сроками (в фигурных скобках) и направление, откуда дует ветер: С - северный, СВ - северо-восточный, В - восточный, ЮВ - юго-восточный, Ю - южный, ЮЗ - юго-западный, З - западный, СЗ - северо-западный.
Видимость - горизонтальная дальность видимости в метрах или километрах. При видимости от 1 до 10 км при отсутствии осадков обычно наблюдается дымка, при ухудшении видимости до 1 км и менее - туман. В сухую погоду видимость может ухудшаться дымом, пылью или мглою.
Явления - указаны атмосферные явления, наблюдавшиеся в срок или в последний час перед сроком; фигурными скобками обозначены явления, наблюдавшиеся между сроками (за 1-3 часа до срока); квадратными скобками обозначены град или гололедные отложения с указанием их диаметра в мм.
Облачность - указаны через наклонную черту общая и нижняя облачность в баллах и высота нижней границы облаков в метрах; квадратными скобками обозначены формы облаков: Ci - перистые, Cs - перисто-слоистые, Cc - перисто-кучевые, Ac - высококучевые, As - высокослоистые, Sc - слоисто-кучевые, Ns - слоисто-дождевые, Cu - кучевые, Cb - кучево-дождевые. Подробнее классификацию облаков см. в Атласе облаков (PDF).
T - Температура воздуха - температура, измеренная на высоте 2 м над землей.
Td - Температура точки росы - температура, при понижении до которой содержащийся в воздухе водяной пар достигнет насыщения.
f - Относительная влажность воздуха - влажноcть воздуха, измеренная на высоте 2 м над землей.
Te - Эффективная температура - температура, которую ощущает одетый по сезону человек в тени. Характеристика душности погоды. При расчете учитывается влияние влажности воздуха и скорости ветра на теплоощущения человека.
Tes - Эффективная температура на солнце - температура, которую ощущает человек, с поправкой на солнечный нагрев. Характеристика знойности погоды. Зависит от высоты солнца над горизонтом, облачности и скорости ветра. Ночью, в пасмурную погоду, а также при ветре 12 м/с и более поправка равна нулю.
P - Атмосферное давление - приведенное к уровню моря атмосферное давление.
Po - Атмосферное давление - измеренное на уровне метеостанции атмосферное давление.
Tmin - Минимальная температура - минимум температуры воздуха на высоте 2 м над землей.
Tmax - Максимальная температура - максимум температуры воздуха на высоте 2 м над землей.
R - Количество осадков - Количество выпавших осадков за период времени, мм. При наведении курсора мыши на число - период времени, за который выпало указанное количество осадков.
R24 - Количество осадков - Количество выпавших осадков за 24 часа, мм.
S - Снежный покров - Высота снежного покрова, см. При наведении курсора мыши на число - состояние снежного покрова и степень покрытия местности в баллах.